Regional Weather Roundup
Issued by NWS

Home | Current Version | Previous Version | Text Only | Print | Product List | Glossary On
Versions: 1 2 3 4 5 6 7 8 9 10 11 12 13 14 15 16 17 18 19 20 21 22 23 24 25 26 27 28 29 30 31 32 33 34 35 36 37 38 39 40 41 42 43 44 45 46 47 48 49 50
000
ASUS43 KDTX 311201
RWRMI
MICHIGAN HOURLY REGIONAL WEATHER ROUNDUP
NATIONAL WEATHER SERVICE DETROIT/PONTIAC MI
800 AM EDT TUE MAY 31 2016

NOTE: "FAIR" INDICATES FEW OR NO CLOUDS BELOW 12,000 FEET WITH NO
SIGNIFICANT WEATHER AND/OR OBSTRUCTION TO VISIBILITY.

MIZ047>049-052>055-059>063-066>070-074>076-081>083-311300-
SOUTHEAST LOWER MICHIGAN

CITY           SKY/WX    TMP DP  RH WIND       PRES   REMARKS
ADRIAN         CLOUDY    66  52  60 NE3       30.04R
6HR MIN TEMP:  57; 6HR MAX TEMP:  66;

ALMA           SUNNY     58  56  92 CALM      30.06R
ANN ARBOR      SUNNY     67  54  63 NE3       30.03R
BAD AXE        SUNNY     61  57  86 N5        30.06S
CARO           SUNNY     58  54  86 CALM      30.05R
DETROIT CITY   SUNNY     68  54  60 N5        30.03R
6HR MIN TEMP:  62; 6HR MAX TEMP:  70;

DETROIT        PTSUNNY   68  54  60 N6        30.04R
6HR MIN TEMP:  62; 6HR MAX TEMP:  68;

FLINT          SUNNY     64  53  67 CALM      30.05R
6HR MIN TEMP:  53; 6HR MAX TEMP:  64;

GROSSE ILE     SUNNY     70  57  64 NE5       30.01R
HILLSDALE      SUNNY     65  47  52 E3        30.05R
HOWELL         SUNNY     62  52  69 NE3       30.05S

CITY           SKY/WX    TMP DP  RH WIND       PRES   REMARKS
JACKSON        SUNNY     63  56  78 CALM      30.05R
6HR MIN TEMP:  52; 6HR MAX TEMP:  63;

LAMBERTVILLE   SUNNY     66  56  70 CALM      30.03R
6HR MIN TEMP:  56; 6HR MAX TEMP:  66;

LANSING        SUNNY     61  54  77 CALM      30.06R
6HR MIN TEMP:  53; 6HR MAX TEMP:  61;

LAPEER         FAIR      59  55  86 CALM      30.05R
6HR MIN TEMP:  50; 6HR MAX TEMP:  59;

MASON          SUNNY     60  55  83 CALM      30.06R
MONROE         SUNNY     66  57  71 N5        30.02R
6HR MIN TEMP:  56; 6HR MAX TEMP:  66;

MT. CLEMENS    MOSUNNY   65  58  76 VRB5      30.02R
6HR MIN TEMP:  56; 6HR MAX TEMP:  65;

PONTIAC        MOSUNNY   67  53  61 NE5       30.04R
6HR MIN TEMP:  55; 6HR MAX TEMP:  67;

PORT HOPE        N/A     62  56  80 CALM      30.05R
6HR MIN TEMP:  54; 6HR MAX TEMP:  62;

PORT HURON     SUNNY     63  57  82 CALM      30.04R
TRI CITIES     SUNNY     64  51  62 N7        30.06R
6HR MIN TEMP:  56; 6HR MAX TEMP:  64;

MIDLAND        FAIR      58  53  83 CALM      30.06R
6HR MIN TEMP:  47; 6HR MAX TEMP:  58;

TROY           SUNNY     69  53  56 N5        30.06R
SAGINAW HB     SUNNY     63  52  67 CALM      30.05R
$$
MIZ043>046-050>051-056>058-064>065-071>073-077>080-311300-
SOUTHWEST LOWER MICHIGAN

CITY           SKY/WX    TMP DP  RH WIND       PRES   REMARKS
BATTLE CREEK   CLOUDY    65  53  65 VRB3      30.05R
6HR MIN TEMP:  55; 6HR MAX TEMP:  65;

BENTON HARBOR  CLOUDY    67  56  67 E5        30.02R
6HR MIN TEMP:  57; 6HR MAX TEMP:  67;

BIG RAPIDS     SUNNY     57  55  93 CALM      30.06S
6HR MIN TEMP:  50; 6HR MAX TEMP:  57;

COLDWATER      SUNNY     64  55  73 E5        30.04R
6HR MIN TEMP:  55; 6HR MAX TEMP:  64;

FREMONT        FAIR      61  56  84 CALM      30.05R
HOLLAND        SUNNY     63  58  83 CALM      30.05R
6HR MIN TEMP:  54; 6HR MAX TEMP:  63;

GRAND RAPIDS   MOSUNNY   62  54  74 CALM      30.05R
6HR MIN TEMP:  56; 6HR MAX TEMP:  62;

IONIA          FAIR      60  55  85 E5        30.04S
6HR MIN TEMP:  52; 6HR MAX TEMP:  60;

KALAMAZOO      SUNNY     65  56  72 CALM      30.05R
6HR MIN TEMP:  56; 6HR MAX TEMP:  65;

LUDINGTON      MOSUNNY   57  55  91 E5        30.07R
6HR MIN TEMP:  48; 6HR MAX TEMP:  57;

MARSHALL       CLOUDY    62  57  82 CALM      30.04S
6HR MIN TEMP:  53; 6HR MAX TEMP:  62;

MOUNT PLEASANT SUNNY     59  55  86 CALM      30.05R
6HR MIN TEMP:  49; 6HR MAX TEMP:  59;

MUSKEGON       MOSUNNY   55  51  86 NE5       30.04R
SOUTH HAVEN    SUNNY     65  56  73 SE5       30.03R
$$
MIZ016>042-311300-
NORTHERN LOWER MICHIGAN

CITY           SKY/WX    TMP DP  RH WIND       PRES   REMARKS
ALPENA         MOSUNNY   56  48  74 NW9       30.08R
6HR MIN TEMP:  49; 6HR MAX TEMP:  56;

BEAVER ISLAND  PTSUNNY   49  44  80 NE9       30.12R
6HR MIN TEMP:  46; 6HR MAX TEMP:  54;

BELLAIRE       SUNNY     55  50  83 NE3       30.10R
6HR MIN TEMP:  47; 6HR MAX TEMP:  55;

CADILLAC       SUNNY     56  51  84 CALM      30.08R
CHARLEVOIX     PTSUNNY   53  48  86 NE6       30.13R
FRANKFORT      MOSUNNY   59  52  78 CALM      30.07R
GAYLORD        CLOUDY    55  48  77 NE8       30.09R
6HR MIN TEMP:  49; 6HR MAX TEMP:  60;

GRAYLING       CLOUDY    54  51  89 CALM      30.09R
HARBOR SPRINGS PTSUNNY   51  47  84 CALM      30.11R
HOUGHTON LAKE  CLOUDY    56  52  86 CALM      30.09R
6HR MIN TEMP:  47; 6HR MAX TEMP:  56;

OSCODA         SUNNY     60  52  75 N5        30.06R
6HR MIN TEMP:  51; 6HR MAX TEMP:  60;

PELLSTON       CLOUDY    51  46  83 N6        30.11R
6HR MIN TEMP:  45; 6HR MAX TEMP:  53;

ROGERS CITY    CLOUDY    51  47  87 NW7G17    30.11R
TRAVERSE CITY  PTSUNNY   57  53  86 VRB3      30.08R
6HR MIN TEMP:  51; 6HR MAX TEMP:  57;

$$
MIZ007>008-015-311300-
EASTERN UPPER MICHIGAN

CITY           SKY/WX    TMP DP  RH WIND       PRES   REMARKS
KINROSS          N/A     48  43  81 N10       30.10R
6HR MIN TEMP:  45; 6HR MAX TEMP:  52;

MACKINAC ISLAN MOSUNNY   49  47  93 N6        30.10R
6HR MIN TEMP:  46; 6HR MAX TEMP:  54;

NEWBERRY       MOSUNNY   46  42  85 N3        30.12R
6HR MIN TEMP:  40; 6HR MAX TEMP:  47;

S. S. MARIE    SUNNY     50  40  68 N7        30.09R
6HR MIN TEMP:  46; 6HR MAX TEMP:  50;

MUNISING         N/A     48  43  82 N5        30.14R
6HR MIN TEMP:  44; 6HR MAX TEMP:  48;

$$
MIZ004>006-011>014-085-311300-
CENTRAL UPPER MICHIGAN

CITY           SKY/WX    TMP DP  RH WIND       PRES   REMARKS
MANISTIQUE     MOSUNNY   47  43  83 N10       30.12R
6HR MIN TEMP:  42; 6HR MAX TEMP:  49;

ESCANABA       CLOUDY    48  43  81 NE6       30.13
6HR MIN TEMP:  46; 6HR MAX TEMP:  52;

MENOMINEE      MOSUNNY   52  45  76 NE7       30.13R
6HR MIN TEMP:  48; 6HR MAX TEMP:  59;

SAWYER-GWINN   PTSUNNY   43  39  87 NE6       30.13R
$$
MIZ001>003-009>011-084-311300-
WESTERN UPPER MICHIGAN

CITY           SKY/WX    TMP DP  RH WIND       PRES   REMARKS
IRON MOUNTAIN  PTSUNNY   49  41  74 E5        30.11R
6HR MIN TEMP:  46; 6HR MAX TEMP:  53;

HOUGHTON       CLOUDY    45  39  79 E12       30.11S
6HR MIN TEMP:  43; 6HR MAX TEMP:  47;

COPPER HARBOR    N/A     46  40  79 SE7       30.14S
6HR MIN TEMP:  43; 6HR MAX TEMP:  46;

IRONWOOD       CLOUDY    54  46  76 E9          N/A
6HR MIN TEMP:  50; 6HR MAX TEMP:  57;

$$

ABBREVIATIONS USED IN REMARKS
   TC - TEMPERATURE IN CELSIUS
  WCI - WIND CHILL INDEX
   HX - HEAT INDEX
  VSB - VISIBILITY





USA.gov is the U.S. government's official web portal to all federal, state and local government web resources and services.